Location: Jarocin
(51.9626°N, 17.5030°E)
Time: 00:29:06
(UTC+01:00)

ISS - Pass Details

Date: 24 January 2019
Orbit: 403 x 411 km, 51.6° (Epoch: 17 February)

Event Time Altitude Azimuth Distance (km) Brightness Sun altitude
Rises 17:44:05 0° 198° (SSW) 2,324 0.5 -12.3°
Reaches altitude 10° 17:46:59 10° 169° (S) 1,470 -0.9 -12.7°
Maximum altitude 17:48:37 13° 140° (SE) 1,297 -1.5 -13.0°
Enters shadow 17:49:18 13° 126° (SE) 1,332 -1.6 -13.1°
